sat.trackr.live / text

‹ back to catalog

STARLINK-3125

NORAD 49451 · 2021-104AV

PAYLOAD ACTIVE UNKNOWN

§ Identity

Operator
Country
US
Launch date
2021-11-13
Launch site
AFETR
Launch vehicle
Mass (kg)
RCS (m²)

Purposes: comms

External: N2YO · Heavens-Above · Gunter

§ Orbital elements

Epoch: 2026-05-24T23:43:08.007168Z

Period
95.44 min
Inclination
53.2161°
Eccentricity
0.0000940
Mean motion
15.08836534 rev/d
Perigee alt
539.1 km
Apogee alt
540.4 km
Semi-major
6,917.9 km
B*
2.7080e-5
RAAN
236.6017°
Arg perigee
79.7348°
Mean anomaly
280.3751°
Rev number
25,029

§ Raw data

STARLINK-31251 49451U 21104AV  26144.98828712  .00000143  00000+0  27080-4 0  99912 49451  53.2161 236.6017 0000940  79.7348 280.3751 15.08836534250296

JSON: /api/v1/satellites/49451 · /tle

For live sub-satellite position, see the globe view (requires WebGL).

§ Visibility from observer

Set your observer location to see the next 7 days of passes ≥ 10°. The values pass through the URL so the page stays shareable.

No JS? Fill the form by hand. The geolocation button needs JavaScript.